Вернуться в каталог

COSMOS 2251 DEB

АктивенVLEO
NORAD 33821·DEBRIS·🇷🇺 Russia

Запущен Jun 16, 1993 с Plesetsk Cosmodrome

Loading…

Ближайшие Пролёты (ближайшие 24 часа)

TLE

СвежийSource: Space-Track

Эпоха: Sep 14, 2026, 10:40 UTC

1 33821U 93036BN  26257.44487865  .00030232  00000-0  64308-3 0  9990
2 33821  74.0207 271.1526 0034735 235.3940 124.3992 15.44176559792310

Отслеживайте COSMOS 2251 DEB в реальном времени с AllMySat

Download on the App Store